Regional Weather Roundup
Issued by NWS

Home | Current Version | Previous Version | Text Only | Print | Product List | Glossary On
Versions: 1 2 3 4 5 6 7 8 9 10 11 12 13 14 15 16 17 18 19 20 21 22 23 24 25 26 27 28 29 30 31 32 33 34 35 36 37 38 39 40 41 42 43 44 45 46 47 48 49 50
000
ASHW40 PHFO 191210
RWRHI

WEATHER ROUNDUP FOR HAWAII
NATIONAL WEATHER SERVICE HONOLULU HI
200 AM HST FRI SEP 19 2014

THIS IS AN AUTOMATED REPORT THAT HAS NOT BEEN QUALITY CONTROLLED.

NOTE..."FAIR" INDICATES FEW OR NO CLOUDS BELOW 12,000 FEET WITH NO
SIGNIFICANT WEATHER AND/OR OBSTRUCTIONS TO VISIBILITY.

* - THESE SITES REPORT LIMITED FIELDS

HIZ001>004-191300-
KAUAI-NIIHAU-

CITY           SKY/WX    TMP DP  RH WIND       PRES   REMARKS
LIHUE APT      LGT RAIN  74  71  91 NW7       29.95F
PORT ALLEN*      N/A     72 N/A N/A N5          N/A
POIPU*           N/A     73 N/A N/A N3          N/A
PRINCEVILLE*   NOT AVBL
KOKOLE POINT*  NOT AVBL
MOLOAA DAIRY*  NOT AVBL
WAIMEA HTS*    NOT AVBL
PUU OPAE*      NOT AVBL
PUU LUA*       NOT AVBL
MAKAHA RIDGE*  NOT AVBL
$$

HIZ005>011-191300-
OAHU-

CITY           SKY/WX    TMP DP  RH WIND       PRES   REMARKS
HONOLULU       PTCLDY    75  70  84 N3        29.93F
KALAELOA       CLEAR     70  70 100 CALM      29.94F
KANEOHE MCB    PTCLDY    79  73  82 CALM      29.93F
WHEELER FIELD  FAIR      71  68  89 N2        29.95F
BELLOWS*       NOT AVBL
KAHUKU*        NOT AVBL
WHEELER*       NOT AVBL
WAIANAE HARBOR NOT AVBL
DILLINGHAM*      N/A     70  68  94 CALM        N/A
KAHUKU TRN*      N/A     73  72  94 CALM        N/A
KAWAILOA*      NOT AVBL
KII*             N/A     75  73  94 S5          N/A
MAKUA RANGE*     N/A     73  70  88 E5          N/A
OAHU FOREST NW NOT AVBL
SCHOFIELD BRK*   N/A     68  66  94 MISG        N/A
SCHOFIELD S*   NOT AVBL
WAIANAE VLY*   NOT AVBL
KUAOKALA*      NOT AVBL
HONOULIUULI*   NOT AVBL
MOKUOLOE IS*     N/A    N/A N/A N/A MISG        N/A
PALEHUA*       NOT AVBL
WAIAWA PHB*    NOT AVBL
$$

HIZ012>013-191300-
MOLOKAI-

CITY           SKY/WX    TMP DP  RH WIND       PRES   REMARKS
MOLOKAI AIRPT  CLEAR     69  69 100 CALM      29.95F
KALAUPAPA      NOT AVBL
MAKAPULAPAI*   NOT AVBL
MOLOKAI 1*     NOT AVBL
PUU ALII*      NOT AVBL
$$

HIZ016-191300-
KAHOOLAWE-

CITY           SKY/WX    TMP DP  RH WIND       PRES   REMARKS
KAHOOLAWE*     NOT AVBL
HAKIOAWA*      NOT AVBL
HONOKANAIA*      N/A     78  69  73 NE9G15    29.94F
KANELOA*         N/A     75  68  78 NE8       29.18F
KEALIALALO*    NOT AVBL
LUA MAKIKA*    NOT AVBL
$$

HIZ014>015-191300-
LANAI-

CITY           SKY/WX    TMP DP  RH WIND       PRES   REMARKS
LANAI CITY     FAIR      67  67 100 NE5       30.00F
LANAI 1*       NOT AVBL
$$

HIZ017>028-191300-
MAUI-

CITY           SKY/WX    TMP DP  RH WIND       PRES   REMARKS
KAHULUI        CLEAR     71  66  84 E7        29.93F
KAPALUA-W MAUI NOT AVBL
HANA AIRPORT   CLEAR     72  70  94 CALM      29.96S
HANA*          NOT AVBL
HALEAKALA SUMM   N/A     48   3  15 VRB7        N/A
MAALAEA BAY*   NOT AVBL
HALEAKALA*     NOT AVBL
KAUPO GAP*     NOT AVBL
KULA 1*          N/A     51  44  76 E7          N/A
$$

HIZ023>026-191300-
BIG ISLAND OF HAWAII COAST AND LOWER SLOPES-

CITY           SKY/WX    TMP DP  RH WIND       PRES   REMARKS
KAILUA KONA    MOCLDY    78  68  71 SE8       29.92F
HILO           PTCLDY    74  69  85 S5        29.93F
HONOKAA*       NOT AVBL
KAWAIHAE MWT*  NOT AVBL
KAWAIHAE*        N/A     81 N/A N/A N3          N/A
SOUTH POINT*   NOT AVBL
UPOLU AIRPORT* NOT AVBL
KAMUELA*       PTSUNNY   64  63  94 CALM      30.05F
HAKALAU*         N/A     48  46  93 SW7         N/A
KALOKO-HONOKO* NOT AVBL
PALI 2*          N/A     64  63  94 NE6         N/A
KEALAKOMO*       N/A     79  70  73 N3          N/A
KAUPULEHU*     NOT AVBL
KAPAPALA*        N/A     69  68  96 CALM        N/A
LOWER KAHUKU*  NOT AVBL
PUHE CS*       NOT AVBL
PUHO CS*       NOT AVBL
PTA KEAMUKU*     N/A    N/A N/A N/A S10         N/A
WAIKOLOA*      NOT AVBL
$$

HIZ027>028-191300-
BIG ISLAND OF HAWAII INTERIOR AND SUMMMITS-

CITY           SKY/WX    TMP DP  RH WIND       PRES   REMARKS
BRADSHAW FIELD MOCLDY    52  50  92 SE2       30.30F
MK VISITOR CEN NOT AVBL
MAUNA KEA*       N/A     39  30  70 CALM        N/A
MAUNA LOA*       N/A    N/A N/A N/A MISG        N/A
MAUNA LOA 1*   NOT AVBL
PTA KIPUKA*      N/A     57  55  94 E1          N/A
PTA RANGE 17*    N/A     57  55  94 E3          N/A
PTA WEST*        N/A     61  61 100 SW3G9       N/A
NENE CABIN*    NOT AVBL
AHUMOA*        NOT AVBL
PTA PORTABLE*  NOT AVBL
PUU MALI*      NOT AVBL
$$

HIC003-191300-
NORTHWEST ISLANDS-

CITY           SKY/WX    TMP DP  RH WIND       PRES   REMARKS
MIDWAY ISLAND  CLEAR     79  72  78 CALM      30.10S
MIDWAY NOS*    NOT AVBL
FRENCH FRIGATE NOT AVBL
$$

PHZ110>124-180-191300-
BUOY REPORTS

STATION/POSITION TIME  TEMP    WIND        PRES    WAVE   SWELL
                       AIR SEA DIR/SP/G            HT/PER HT/DIR
                 (UTC) (F)     (DEG/KT/KT) (MB)    (FT/S) (FT/D)
BUOY 51001       NOT AVBL
BUOY 51101       NOT AVBL
BUOY 51100       1200   79 81  110/  6/ 10 1013.9F
BUOY 51003       1100   81 84  110/  2/  6 1013.8F   5/11   5
BUOY 51004       1102   80 81   80/ 10/ 12 1012.7F   6/11   5/110
BARBERS PT BUOY  NOT AVBL
WAIMEA BAY BUOY  1200      82                N/A     5/10   2/ 10
KAILUA BAY BUOY  1200      83                N/A     5/11   2/ 30
LANAI BUOY       NOT AVBL
BARBERS PT 2     1200      83                N/A     3/13   2/180
PAUWELA MAUI     1200      81                N/A     5/10   2/ 10
HILO             1200      82                N/A     5/11   3/ 30
KANEOHE BAY BUOY NOT AVBL
HANALEI KAUAI    NOT AVBL
KAHULUI HARBOR   1200   76 84  130/  1/  2 1013.4F
HONOLULU HARBOR  1200   77        CALM     1013.7F
KILO NALU        NOT AVBL
HILO HARBOR      1200   74     190/  3/  4 1013.1F
MOKUOLOE         1200   76 85  200/  2/  2 1013.6F
NAWILIWILI       1200      85                N/A
WHOTS BUOY       NOT AVBL
BUOY 51028       NOT AVBL
$$

......................KEY........................................
  SKY/WX - SKY CONDITIONS/PRESENT WEATHER
  TMP    - TEMPERATURE IN FAHRENHEIT
  DWPT   - DEWPOINT IN FAHRENHEIT
  RH     - RELATIVE HUMIDITY IN PERCENT
  WIND   - DIRECTION AND SPEED /MPH FOR ISLANDS...KTS FOR BUOYS/
  PRES   - MEAN SEA LEVEL PRESSURE IN INCHES OF HG
  VSB    - VISIBILITY IN MILES
  HX     - HEAT INDEX
  WCI    - WIND CHILL INDEX
  VRB    - VARIABLE WIND DIRECTION
  N/A    - NOT AVAILABLE


USA.gov is the U.S. government's official web portal to all federal, state and local government web resources and services.